Location: Peebles
(55.6412°N, 3.1714°W)
Time: 17:18:42
(UTC+01:00)

USA 238 DEB - Pass Details

Date: 21 January 2022
Orbit: 969 x 1243 km, 63.4° (Epoch: 04 May)

Event Time Altitude Azimuth Distance (km) Brightness Sun altitude
Rises 19:18:45 0° 253° (WSW) 3,735 7.8 -23.9°
Reaches altitude 10° 19:21:20 10° 257° (WSW) 2,816 6.9 -24.2°
Maximum altitude 19:27:54 58° 337° (NNW) 1,234 4.0 -25.2°
Enters shadow 19:30:40 36° 38° (NE) 1,658 4.4 -25.6°
